Wind_Gust
2 2 7 7 11 11 7 9 9 7 8 5 6 5 1 1 7 8 5 9 4 5 3 5 6 4 9 7 11 11 12 4 4 9 13 14 15 16 17 16 17 17 24 18 14 15 16 15 13 12 12 12 10 12 14 15 13 14 16 12 12 9 7 10 10 8 10 8 6 5 5 8 3 4 4 5 4 5 5 4 5 5 6 5 5 5
5 3 11 12 14 12 8 4 4 6 4 5 7 2 2 1 3 5 3 6 11 5 2 3 2 4 7 8 8 8 5 8 8 7 13 19 21 21 21 18 18 21 6 9 10 9 5 6 7 9 13 14 18 13 14 17 17 14 12 13 13 10 8 8 8 9 9 7 10 10 9 6 6 5 7 3 1 3 4 4 4 4 5 6 6 5
4 10 15 14 7 1 1 5 4 6 5 4 2 2 2 6 6 12 6 5 8 8 4 5 2 6 8 7 10 5 6 9 8 10 9 10 10 13 14 15 14 8 10 7 9 9 11 9 9 11 13 15 19 19 16 15 14 13 13 12 10 12 11 9 7 8 8 5 6 7 8 9 6 2 2 4 2 2 4 4 4 2 5 6 5 5
9 11 20 6 8 4 1 3 7 6 8 7 4 3 6 6 4 9 11 6 8 6 3 2 2 11 12 8 10 13 9 9 8 7 8 14 20 17 21 22 20 16 13 17 20 22 13 10 10 10 13 14 11 15 14 13 17 16 15 10 11 12 10 9 8 8 5 7 6 7 8 5 5 5 5 6 5 4 5 4 4 2 3 5 5 4
15 16 2 7 6 8 5 2 4 5 6 3 3 4 4 2 5 10 9 8 7 4 4 4 8 13 7 7 9 6 5 7 11 10 8 8 12 16 13 5 11 21 23 21 16 12 13 15 19 24 21 14 16 18 20 19 19 18 18 15 14 14 12 10 9 7 8 11 10 10 8 6 7 6 7 5 3 3 1 3 4 2 3 3 4 3
16 17 4 3 4 5 6 5 8 10 4 7 8 9 7 4 4 4 5 5 12 10 8 7 11 14 10 8 11 15 8 9 6 4 13 17 8 6 10 16 14 14 17 24 25 25 24 26 20 10 10 15 16 20 21 20 19 17 16 14 12 11 10 11 8 10 12 13 16 12 11 8 5 6 5 4 7 3 3 4 1 2 2 2 4 3
13 7 4 10 9 6 8 11 6 7 6 2 13 10 6 4 4 4 1 5 4 7 9 4 8 19 13 7 7 10 7 13 13 7 15 16 10 11 16 19 21 23 19 9 15 21 20 19 15 15 18 20 21 21 14 14 16 15 16 14 14 14 13 10 9 10 13 13 15 16 16 14 14 13 7 3 3 6 3 1 2 1 2 2 4 5
3 7 5 1 4 7 6 9 9 11 10 10 6 8 7 6 4 5 6 8 7 5 7 8 8 11 15 15 13 7 5 12 15 16 14 19 18 11 15 16 17 21 21 23 22 21 23 23 26 27 26 22 25 15 12 15 14 16 17 15 15 13 12 11 12 11 14 17 13 11 9 11 12 13 11 7 6 3 2 4 2 1 2 4 2 3
2 8 3 3 2 6 11 13 8 9 12 11 3 8 4 4 5 9 10 7 3 2 9 9 5 8 11 18 10 4 5 11 14 16 18 18 17 13 15 17 18 21 24 23 23 24 24 24 23 22 20 23 14 15 20 21 19 16 14 13 11 12 12 12 13 14 11 16 16 15 12 10 7 7 7 6 4 5 2 5 1 2 2 4 4 3
7 11 8 9 7 11 11 6 13 14 6 9 6 8 8 8 8 8 7 9 2 6 9 10 5 11 14 15 9 6 4 12 16 17 16 17 17 12 16 16 14 13 16 21 27 28 27 26 25 27 25 15 20 18 13 10 10 12 12 13 13 13 13 14 14 13 12 11 14 14 12 13 9 7 5 6 8 6 2 5 2 2 2 2 4 4
9 8 9 8 11 14 9 7 11 14 11 5 8 2 5 13 5 5 10 7 8 6 12 5 3 4 11 14 10 7 9 11 8 13 13 16 16 15 16 16 12 18 18 21 20 22 27 28 16 7 12 17 8 6 10 13 13 12 15 15 15 15 13 14 16 14 14 13 14 15 14 13 12 9 10 9 6 5 2 6 4 3 3 1 1 1
9 3 5 10 6 6 4 6 4 3 3 5 5 5 2 6 14 8 9 10 7 15 10 6 7 7 5 17 10 14 10 6 8 15 18 20 23 17 11 10 13 15 18 18 18 18 13 7 10 13 11 13 11 7 11 10 11 14 16 16 16 12 13 14 15 14 15 14 13 13 14 14 14 14 13 13 13 11 10 8 8 4 1 2 1 1
5 10 6 10 6 10 5 2 6 9 8 10 10 13 8 8 11 9 8 10 9 14 6 3 6 6 9 19 18 13 14 14 8 9 13 18 20 16 11 10 13 14 13 17 18 15 13 17 15 16 13 10 14 21 18 18 17 17 17 18 19 18 14 16 15 16 14 13 14 14 15 13 14 14 14 14 12 10 11 10 7 5 6 2 2 3
12 7 6 8 6 6 11 9 5 3 3 9 11 10 9 5 5 8 11 7 11 14 6 2 5 8 12 16 9 11 13 9 10 11 11 9 12 16 16 7 8 6 11 15 17 19 20 20 19 19 21 22 21 20 22 19 18 19 19 19 21 22 18 15 15 16 15 16 16 14 15 15 15 14 14 13 14 12 10 11 11 11 10 9 8 5
5 13 11 4 6 6 7 8 13 11 9 11 5 19 15 16 16 12 10 11 11 13 7 7 2 13 3 10 7 9 11 9 9 6 8 16 16 15 13 13 10 11 8 3 13 18 20 23 23 21 21 24 24 23 23 21 20 17 18 20 20 18 16 17 18 16 16 15 14 14 15 16 14 16 15 14 13 13 11 8 10 9 7 9 8 9
8 15 13 6 3 5 9 5 9 8 5 3 6 12 12 12 14 13 14 8 7 5 7 5 12 9 11 6 6 5 5 10 8 18 18 18 20 22 26 23 18 10 10 8 3 6 12 19 19 18 19 21 20 22 21 22 20 18 21 21 23 24 23 21 19 18 19 16 15 14 15 16 16 15 13 11 9 10 12 13 12 11 9 9 7 5
5 12 4 9 3 5 1 4 5 9 11 8 5 6 9 7 14 9 5 2 4 9 14 5 14 13 16 9 13 11 17 15 21 19 21 18 18 23 21 19 19 20 16 6 9 6 4 7 8 19 22 22 24 23 25 25 24 25 23 20 21 18 16 19 20 20 18 16 14 15 16 14 14 15 16 17 13 12 10 11 11 11 11 6 6 7
12 13 6 5 2 3 3 4 8 5 12 13 4 10 2 3 7 10 9 8 6 8 18 4 7 9 6 13 9 14 17 14 14 13 11 13 16 20 13 12 14 16 16 16 10 5 10 8 4 9 12 15 19 23 24 25 24 24 23 23 23 19 20 20 18 18 16 15 15 14 14 15 18 18 16 15 15 12 12 8 8 6 8 8 8 8
9 14 10 4 4 9 7 4 8 7 6 14 10 4 6 10 8 9 10 8 8 12 13 7 4 10 8 10 6 9 7 8 10 11 13 15 14 10 11 10 11 15 20 20 17 15 10 3 7 9 7 7 11 13 17 23 22 18 15 16 20 24 25 24 22 19 17 16 16 16 17 17 15 14 14 13 12 13 13 12 11 10 9 6 6 9
7 12 14 7 5 5 6 9 10 8 11 5 6 9 2 11 3 4 10 6 12 9 5 13 3 15 10 9 9 4 4 2 4 9 8 7 8 9 10 13 13 15 15 16 16 15 16 14 6 7 11 13 11 7 8 8 6 12 19 18 18 17 11 11 14 15 17 17 16 14 11 10 13 14 15 14 15 14 14 13 12 10 7 10 8 8
5 5 10 10 8 4 7 6 8 6 3 9 11 5 10 8 4 6 4 7 9 13 12 13 11 13 11 12 10 8 4 3 5 6 5 4 3 4 6 8 10 13 14 13 13 14 15 14 14 12 4 7 10 8 7 7 11 14 11 14 18 19 17 17 17 16 19 18 17 15 16 15 13 12 12 13 14 15 13 12 12 12 11 9 9 9
4 4 8 12 9 6 3 5 6 7 11 10 8 4 9 4 5 4 16 5 6 11 15 10 19 14 14 4 5 6 5 4 4 5 4 5 7 7 7 6 7 9 9 11 12 12 16 15 17 14 13 10 4 4 6 7 6 8 12 16 16 12 12 16 18 20 21 18 18 18 18 15 13 13 11 13 12 13 13 12 12 11 10 11 9 10
6 7 6 7 7 8 6 9 6 6 7 6 10 4 5 7 11 10 10 10 6 9 8 8 7 15 10 6 2 3 2 3 2 3 5 4 6 8 8 6 6 7 7 10 9 11 12 12 12 16 17 11 8 7 6 7 10 11 10 11 10 12 16 17 18 16 17 17 17 17 14 14 14 13 13 13 11 12 13 12 10 11 13 11 10 6
7 9 5 9 10 10 10 4 4 4 11 10 8 5 8 6 8 13 11 10 9 6 7 7 12 18 7 6 6 3 4 4 7 7 7 6 7 11 12 14 13 12 10 11 14 15 15 13 15 20 18 19 19 15 9 7 8 9 10 12 14 16 15 11 11 16 14 11 12 11 12 15 13 14 14 13 11 11 10 11 10 9 11 10 10 10
7 9 8 5 11 16 15 16 10 9 12 7 5 3 4 5 5 3 9 4 9 11 11 12 23 10 11 8 8 9 11 12 12 13 9 10 10 8 10 11 12 12 14 15 16 16 17 20 20 18 18 17 16 16 16 13 7 9 11 10 13 14 16 17 17 16 16 16 16 12 12 12 14 14 13 12 11 9 9 9 9 7 9 9 8 7
8 8 9 9 12 13 16 12 15 11 10 7 4 4 3 4 4 5 5 5 8 8 4 13 19 16 11 6 8 5 7 9 9 9 7 3 3 7 9 9 10 12 12 10 11 13 13 10 11 15 15 16 16 14 10 13 16 11 8 10 11 14 15 18 13 13 14 14 15 15 15 10 8 11 11 12 12 13 11 11 10 9 7 9 10 7
7 4 4 10 13 15 16 16 10 4 5 13 6 7 4 2 3 6 9 7 13 9 8 14 9 13 19 10 15 11 8 6 7 8 8 10 10 10 6 9 9 9 9 9 7 8 11 16 14 11 11 12 14 15 16 11 11 14 12 9 7 6 9 11 14 15 17 18 19 19 20 21 22 18 13 14 15 15 14 13 11 11 10 8 10 10
5 6 5 4 8 12 11 10 8 9 9 7 7 9 7 7 7 7 10 18 10 7 22 13 8 10 12 5 5 8 9 4 2 2 5 6 6 8 8 5 7 11 12 13 15 17 13 9 10 12 12 12 14 15 17 17 14 9 10 14 10 6 7 9 10 15 18 19 19 21 23 22 22 21 19 16 16 17 17 15 13 11 10 11 12 11
5 6 5 4 7 9 9 12 9 6 8 9 8 7 7 9 5 9 9 12 9 14 23 10 8 10 7 3 2 5 5 5 5 4 4 5 4 5 4 6 9 9 10 11 10 10 11 12 11 11 13 14 13 15 15 16 17 18 16 9 8 10 8 7 10 10 12 10 12 14 17 19 20 21 23 22 18 17 17 16 14 13 12 11 11 11
10 7 4 3 7 6 8 9 7 8 8 7 8 9 10 10 12 12 11 8 15 13 15 14 7 16 8 2 2 1 2 3 3 5 4 3 5 7 6 8 8 8 8 8 8 6 6 7 6 8 10 12 12 14 17 16 15 13 16 19 15 10 11 9 13 17 18 21 23 22 21 21 21 21 20 20 21 20 19 17 16 15 14 13 13 12
8 14 8 7 9 11 9 8 5 8 10 14 11 9 9 10 11 10 7 5 6 12 10 8 8 13 12 9 3 2 3 5 5 9 8 6 6 5 6 5 6 7 7 8 9 9 7 5 5 5 6 9 13 12 11 14 16 14 13 13 15 16 14 9 13 17 19 21 20 20 20 20 22 23 23 21 20 19 20 20 18 17 15 14 13 12
6 11 5 7 10 16 9 5 8 5 7 10 11 5 7 7 9 10 17 13 10 12 5 2 7 13 9 4 2 2 5 5 5 6 6 6 5 3 6 7 7 7 8 10 10 10 11 11 9 8 8 9 10 11 10 12 15 18 16 16 17 18 16 11 12 14 18 13 11 9 10 18 24 23 24 24 23 22 21 20 19 18 16 15 13 11
10 9 9 5 12 21 12 8 11 10 14 24 19 14 18 13 10 5 4 5 12 11 9 8 16 11 11 8 7 6 4 4 6 6 6 4 2 1 2 5 5 6 7 8 11 11 11 10 9 9 10 9 12 13 12 10 13 17 18 18 20 19 14 12 14 13 9 14 18 18 18 16 13 15 19 22 23 22 21 20 18 17 15 15 12 12
7 11 14 10 18 20 9 6 3 6 22 30 10 19 19 18 17 12 10 11 8 12 13 13 10 8 4 6 9 8 8 7 7 9 6 8 8 6 5 5 6 7 8 8 9 10 11 12 11 10 9 10 12 13 13 13 13 15 15 15 17 16 16 10 11 11 10 9 11 16 22 25 23 21 20 19 19 19 18 17 16 15 13 12 11 13
7 8 10 12 15 19 6 3 12 23 33 7 3 4 6 10 12 13 8 7 3 2 3 4 6 7 11 10 10 9 10 9 7 11 9 10 9 7 5 5 7 7 9 10 11 11 10 10 12 12 12 10 11 12 14 17 13 15 16 12 15 15 15 11 11 12 11 14 16 18 20 24 25 25 22 19 18 17 16 16 15 13 12 15 15 15
9 12 11 11 11 8 8 13 20 32 10 4 6 5 5 5 6 13 4 3 5 6 7 7 6 6 7 7 8 8 8 9 8 11 13 11 11 9 5 7 9 8 10 10 11 12 13 13 13 13 15 14 12 14 13 17 17 17 18 12 12 14 13 12 11 12 10 11 11 12 12 15 22 17 19 17 16 17 15 14 16 15 12 10 10 8
14 6 8 15 10 18 12 12 27 13 16 7 9 8 8 8 6 8 14 12 4 2 5 5 6 5 6 7 8 7 6 3 4 14 7 11 13 9 9 10 9 10 11 11 10 13 12 12 12 14 13 12 14 16 17 18 17 17 18 16 12 12 14 12 13 14 14 13 16 17 16 17 16 13 15 22 18 15 13 12 10 10 11 14 12 13
5 12 10 13 16 13 12 13 15 12 22 10 4 7 3 5 8 10 7 4 4 6 4 5 4 8 8 7 7 8 6 3 8 8 11 10 11 10 9 9 8 10 10 12 11 11 11 11 12 12 13 15 16 15 15 18 19 18 18 18 13 11 14 13 15 14 14 15 16 17 18 20 22 22 16 12 11 11 11 10 9 12 13 16 13 11
8 4 5 16 10 4 7 15 19 17 19 8 10 11 11 9 12 6 6 7 6 3 5 7 8 8 8 7 7 3 9 14 15 12 12 11 10 9 11 11 10 10 10 11 11 12 12 12 12 14 13 13 17 17 13 17 19 20 20 17 13 12 15 15 15 15 17 18 17 18 18 19 20 23 25 21 19 14 12 12 15 12 10 11 12 12
9 6 6 3 7 9 7 12 18 14 13 3 7 10 11 11 10 10 11 12 6 7 8 7 11 8 8 7 4 4 4 13 19 15 5 8 8 10 9 13 11 10 11 10 9 11 12 12 12 15 15 16 19 15 14 15 17 19 21 18 12 14 17 17 17 18 16 15 15 18 19 20 19 16 20 21 17 14 16 12 13 12 11 8 10 11
10 10 6 4 4 6 6 12 10 14 7 4 6 8 14 6 6 10 13 9 9 7 8 6 7 8 5 6 3 11 11 15 17 16 10 7 11 14 11 10 12 9 11 11 11 8 10 12 13 18 20 20 18 17 14 14 16 20 19 17 15 18 18 17 14 13 13 14 15 17 18 20 21 21 21 22 17 15 13 14 14 10 9 9 7 6
7 5 8 4 4 4 5 6 15 7 7 4 10 4 4 8 7 4 7 6 5 9 9 5 7 8 5 8 9 11 14 12 15 15 13 9 10 14 14 15 16 16 7 9 11 10 12 16 17 18 20 18 19 18 16 15 18 20 18 17 20 18 14 16 16 14 15 16 18 17 19 21 23 21 19 15 17 17 14 11 12 13 11 9 10 8
8 12 9 6 9 6 6 7 9 11 6 5 4 9 6 14 11 7 8 9 4 6 6 6 6 10 5 8 9 12 13 15 15 19 17 14 11 14 15 15 16 16 19 18 16 11 11 20 21 20 19 20 17 17 16 15 19 20 17 21 21 15 15 15 13 13 15 20 22 15 15 17 19 18 15 16 17 16 13 11 10 7 8 9 7 7
5 11 12 9 6 9 8 13 14 9 5 3 5 8 10 11 7 5 2 6 7 4 4 5 7 8 6 7 12 14 14 14 17 18 20 19 16 13 13 13 12 14 16 15 14 17 15 17 19 21 18 19 18 17 17 17 20 18 18 22 16 13 13 14 18 21 18 17 24 25 20 21 19 18 16 15 14 14 13 11 7 6 7 7 9 9
3 7 8 10 8 10 15 12 10 7 6 5 7 7 9 10 6 6 5 7 6 9 7 5 9 11 9 10 12 13 16 17 18 18 18 22 20 18 18 19 16 16 17 18 20 18 16 19 21 21 22 20 19 19 18 17 19 19 21 19 11 12 17 20 22 20 21 18 17 24 22 21 23 22 18 18 15 12 10 7 8 8 5 8 7 8
6 6 3 8 16 8 11 12 10 10 4 7 7 10 12 8 6 5 7 8 9 11 8 9 8 10 12 9 11 14 15 17 18 20 19 19 19 18 16 17 16 14 15 16 17 18 18 18 18 20 22 22 19 19 15 15 16 20 22 16 13 13 20 23 22 22 28 27 22 22 19 22 19 18 16 14 12 12 10 12 10 9 8 7 7 6
6 4 5 10 6 7 20 8 6 10 14 15 15 14 7 4 7 7 7 8 10 9 9 10 13 13 14 13 14 17 19 18 18 19 18 19 20 18 17 17 17 15 15 18 19 17 18 15 19 21 21 22 18 16 14 12 13 15 13 12 14 15 20 21 22 22 26 29 25 17 16 19 17 15 13 10 9 8 7 8 9 9 7 8 7 6
15 4 12 9 9 14 19 8 11 13 10 11 13 9 7 9 11 9 9 9 10 10 9 13 10 13 11 14 16 16 19 18 16 18 18 18 19 18 17 17 18 17 16 16 17 16 17 19 20 21 21 21 17 13 14 15 14 11 12 18 19 20 23 28 30 26 22 21 23 25 20 17 14 16 12 11 11 11 8 6 8 11 11 10 9 7
16 8 17 6 17 15 9 12 15 12 11 12 11 7 11 11 9 9 9 11 11 12 15 15 12 16 13 17 14 12 15 19 16 16 20 21 17 16 17 18 16 17 18 17 17 16 19 19 21 20 20 17 13 11 10 11 9 6 9 18 25 26 21 19 24 27 21 19 19 20 16 15 13 13 13 10 7 5 7 12 10 9 7 6 9 11
4 16 16 11 16 17 16 17 6 19 21 12 7 9 10 10 9 12 11 11 12 14 15 15 17 13 13 14 13 13 16 18 17 15 18 19 17 17 18 18 17 17 18 17 18 18 19 18 19 19 16 14 14 13 6 2 5 8 12 16 19 23 26 23 25 23 20 17 16 15 15 13 13 13 14 13 12 10 5 3 4 8 10 5 9 13
10 12 8 13 12 20 15 15 7 12 18 21 18 11 10 9 8 13 16 16 16 14 13 13 16 16 13 13 11 13 15 16 19 16 17 18 18 17 17 17 18 18 20 20 19 18 18 17 15 12 14 16 13 11 6 7 7 9 11 12 14 20 24 22 22 21 20 18 17 16 16 15 14 15 13 12 11 8 7 3 2 5 7 5 3 5
Wind_Speed
0 1 3 5 6 7 5 6 5 3 4 2 4 3 1 0 3 3 3 5 2 2 1 2 3 1 6 4 7 7 7 1 3 6 7 7 7 7 7 9 10 11 14 8 7 8 9 7 7 6 6 6 5 6 8 9 8 9 10 8 8 5 4 6 6 4 5 5 3 3 3 5 1 2 2 3 3 4 3 3 3 3 4 3 4 3
2 1 6 8 9 8 3 3 3 4 2 3 5 1 1 0 1 2 1 3 6 2 1 2 0 2 4 5 5 5 4 5 3 4 9 13 12 12 13 12 12 10 3 6 6 6 4 4 5 5 7 8 11 7 8 11 10 9 8 9 8 6 5 5 5 4 4 4 5 5 5 3 2 3 3 1 1 2 2 3 3 3 3 4 4 3
1 5 9 8 4 1 1 3 2 3 3 2 1 1 1 2 3 7 3 3 3 2 2 3 2 3 5 5 6 3 4 4 3 6 6 6 6 7 8 8 6 5 6 5 6 6 7 6 6 7 8 9 10 11 10 9 9 8 8 7 6 7 7 5 4 5 4 2 3 3 3 5 3 0 1 2 1 1 3 3 2 1 3 4 4 3
5 6 11 1 5 2 0 1 4 3 4 4 2 1 3 2 1 4 5 3 5 2 1 1 1 6 7 5 6 8 4 5 4 4 4 9 13 10 11 12 12 9 7 11 13 15 8 5 6 6 7 8 6 8 8 8 10 9 8 7 7 7 6 6 5 4 3 3 4 5 5 3 3 3 2 3 3 3 3 3 2 2 3 4 3 3
8 9 1 4 4 5 3 0 3 4 3 1 1 2 1 1 3 5 3 4 4 2 3 2 4 6 3 4 4 3 3 3 6 7 3 5 6 10 9 4 5 12 15 13 10 8 8 9 12 15 11 7 8 10 12 11 11 8 11 9 9 8 8 6 5 5 5 6 5 6 5 4 4 3 4 3 2 2 1 2 2 1 2 2 3 2
10 8 1 1 2 2 4 2 4 5 2 2 4 6 4 2 1 2 3 3 5 3 4 3 3 3 4 5 6 8 4 5 3 3 9 6 5 4 7 11 9 8 8 13 15 15 15 16 12 5 7 9 9 11 12 11 11 11 9 9 7 6 6 7 5 6 6 7 8 7 7 5 3 3 2 2 4 2 2 3 0 1 1 1 3 2
5 4 0 4 4 2 4 5 4 4 3 1 5 7 4 3 3 2 0 3 0 1 3 2 3 4 6 3 3 6 4 9 7 5 9 9 4 7 9 11 12 14 12 6 6 11 13 12 8 9 11 13 12 12 6 6 8 10 10 9 9 8 7 6 6 6 6 6 7 9 10 8 8 7 3 2 1 3 1 0 1 1 1 1 3 3
1 4 4 1 1 3 3 4 4 7 5 3 2 6 5 4 3 3 3 4 2 2 3 5 3 2 4 7 7 4 4 8 9 11 8 9 12 7 9 10 11 13 13 14 14 14 14 13 16 16 17 13 15 8 7 8 8 10 10 9 9 7 7 6 6 7 8 9 8 7 6 6 7 7 7 4 3 1 1 3 1 1 1 3 1 2
1 4 1 1 1 2 5 6 5 6 5 3 2 6 3 3 3 5 5 4 1 1 4 4 2 0 2 8 6 2 3 5 9 9 11 12 11 9 10 11 12 13 15 15 14 15 15 14 15 14 13 14 8 9 12 13 10 8 7 8 6 7 7 6 7 8 7 9 9 8 7 6 4 4 4 3 2 3 1 4 1 1 2 3 2 2
2 6 4 4 3 4 6 3 8 9 2 4 3 5 5 5 5 5 4 5 0 2 4 4 1 2 4 8 5 4 1 7 8 11 11 11 12 8 8 9 9 9 10 13 17 17 17 16 15 15 13 9 12 8 6 5 6 7 7 8 8 8 6 7 8 8 8 7 8 8 7 8 6 4 3 4 4 4 2 4 2 1 1 2 3 3
4 4 6 4 4 7 5 3 6 9 6 3 5 2 2 7 3 3 6 3 2 1 4 3 1 2 2 6 5 3 3 5 5 7 7 10 11 9 9 7 8 11 12 12 13 13 16 12 6 4 7 6 3 4 6 7 7 7 8 9 9 9 7 7 10 9 9 7 8 9 8 9 8 6 7 6 4 3 2 4 3 3 2 0 1 1
5 1 1 3 1 2 3 2 3 2 2 3 2 2 1 2 6 2 3 4 0 5 5 3 4 4 1 7 5 8 6 3 5 10 11 14 15 11 7 4 7 10 11 12 11 11 7 5 7 9 8 8 8 5 7 6 6 8 9 10 10 7 8 8 9 9 8 8 8 7 9 9 9 9 7 8 8 7 6 4 4 2 1 1 1 1
2 5 2 7 3 8 1 1 3 5 4 5 5 7 2 2 3 2 1 3 3 4 1 1 3 3 4 9 8 7 8 8 4 5 8 11 13 11 6 1 2 2 6 11 11 9 7 10 9 11 8 7 9 13 12 11 10 10 10 12 13 11 9 10 10 10 9 8 8 9 9 8 8 8 8 8 7 6 7 6 4 4 4 2 1 1
5 3 4 4 4 1 6 3 1 0 1 5 5 4 4 0 1 2 4 1 4 6 2 1 2 1 4 6 2 6 7 5 5 5 4 4 7 10 10 5 4 4 1 2 8 10 11 12 11 10 12 13 12 11 13 12 11 11 11 12 14 14 11 9 9 10 9 9 9 8 9 9 9 8 8 7 7 7 6 6 7 7 6 6 5 4
2 4 3 1 1 2 1 3 6 3 5 5 0 9 7 7 4 3 3 3 5 6 2 4 1 2 1 1 5 5 5 3 3 1 4 10 10 10 9 9 6 5 5 4 2 6 11 13 12 11 13 12 11 15 12 11 12 10 11 12 13 12 11 11 12 10 10 9 7 8 8 9 8 9 8 8 7 7 6 5 5 5 4 5 5 5
4 6 5 3 2 0 5 2 5 5 2 1 3 5 6 5 7 4 4 3 2 0 2 1 3 4 2 1 3 3 2 4 2 7 12 11 10 13 14 13 11 6 4 4 2 1 4 5 4 9 9 10 12 12 12 12 11 11 12 13 14 16 14 13 12 11 12 10 8 7 9 9 9 8 8 7 5 6 7 7 7 7 5 6 4 2
2 2 2 6 2 2 0 1 2 5 1 2 2 2 3 2 7 4 2 1 3 4 4 0 6 5 5 5 8 6 7 8 7 11 13 10 7 14 10 9 9 10 8 4 6 3 1 1 1 4 5 8 11 11 13 16 14 16 15 13 13 12 10 12 12 12 11 10 8 8 8 7 7 9 10 10 9 8 6 6 7 7 6 4 4 4
4 5 3 2 1 1 1 2 3 3 4 5 1 3 0 1 3 3 3 2 3 2 5 1 2 3 2 2 4 7 10 9 9 9 7 9 11 13 8 8 7 8 8 8 6 2 5 5 2 3 2 2 5 6 10 15 15 14 13 14 14 12 13 13 11 11 10 10 9 8 8 8 10 10 10 9 9 7 7 5 4 4 4 5 5 5
3 3 3 2 1 6 4 1 5 3 3 6 4 2 2 2 2 3 4 0 1 1 2 1 1 3 4 4 1 4 4 5 7 8 8 10 10 6 5 6 6 7 11 11 9 8 6 2 3 5 5 2 2 3 4 6 5 4 6 8 10 15 16 15 13 11 10 9 8 8 10 10 9 7 8 8 7 8 8 8 6 6 6 4 4 5
2 3 5 2 3 3 3 3 4 2 4 3 3 3 0 4 1 1 2 2 4 3 1 6 2 5 3 3 6 3 3 1 2 4 5 5 6 6 6 7 7 7 8 8 8 8 8 7 5 2 4 7 8 5 3 3 3 6 7 7 9 8 5 5 9 9 10 10 9 8 7 6 7 7 7 8 8 8 8 8 7 6 5 6 5 5
1 2 2 3 4 2 1 1 3 3 1 3 4 1 2 2 1 2 1 1 3 3 4 3 2 4 3 5 5 5 2 3 3 3 1 2 2 3 4 6 7 7 7 7 8 8 9 9 9 8 3 2 3 4 4 4 5 6 4 5 7 9 9 10 11 10 11 10 11 10 11 10 8 8 7 7 7 9 8 7 7 7 7 5 5 5
1 1 3 3 3 1 1 2 3 3 4 5 1 1 4 2 1 0 7 2 1 1 3 3 5 6 4 2 3 4 3 2 2 3 3 3 3 3 4 5 5 6 6 7 8 8 10 10 11 10 9 7 3 1 3 4 3 3 5 7 6 4 5 8 9 12 12 10 10 11 11 10 8 8 7 7 7 7 7 7 7 6 6 7 6 6
1 2 2 2 2 2 2 6 4 1 3 2 5 1 2 3 5 5 2 4 1 1 4 3 1 4 3 4 2 2 2 2 2 2 3 4 5 4 4 4 4 4 5 6 6 7 8 8 8 8 9 7 6 5 3 2 5 7 6 5 5 6 8 8 6 2 0 2 4 9 8 8 9 8 8 8 6 6 6 6 5 5 8 6 6 4
3 1 1 3 5 5 5 2 2 3 7 6 4 2 2 2 4 6 4 4 3 1 1 1 2 3 2 4 4 3 3 3 4 5 5 4 4 4 4 5 4 6 6 6 6 7 7 7 9 11 11 11 10 9 7 4 4 4 6 7 7 9 9 6 7 8 8 8 4 3 2 6 7 9 9 9 7 6 5 5 5 4 5 5 5 6
1 3 2 1 3 7 8 7 2 2 5 3 2 1 1 1 4 2 5 1 1 5 6 5 8 2 4 4 4 6 8 8 8 8 6 6 5 5 7 6 6 5 7 9 10 10 11 12 12 10 10 10 9 9 10 9 4 4 5 4 7 9 8 8 8 9 9 9 10 9 4 2 3 7 7 7 7 7 6 5 5 4 5 5 4 4
1 3 3 2 4 3 3 2 4 5 4 1 1 1 0 2 3 1 1 0 2 2 3 3 3 7 2 3 5 4 5 6 5 5 4 2 2 4 6 6 6 7 7 7 7 9 9 6 7 10 10 10 9 8 7 8 10 7 4 5 5 7 8 8 6 5 6 7 9 9 10 8 3 3 5 7 8 9 8 7 6 6 4 6 6 4
0 1 1 4 6 7 8 7 5 2 1 2 2 4 2 1 1 3 4 3 4 3 3 6 3 5 10 1 3 3 5 3 3 4 4 5 5 4 2 4 4 4 5 5 4 3 3 8 9 5 5 8 8 9 8 6 7 8 8 6 4 4 5 7 8 8 9 9 10 11 13 13 14 12 9 9 9 9 8 8 7 7 6 5 7 6
2 1 2 1 4 6 6 6 5 5 4 3 4 2 4 4 5 5 5 6 4 1 10 3 5 4 7 1 1 3 1 0 1 2 3 3 4 5 5 4 5 5 5 5 7 8 7 4 5 7 6 7 8 9 10 9 7 6 6 9 7 4 3 3 3 6 7 8 9 10 12 12 12 13 12 10 10 10 10 10 8 7 7 7 7 7
1 0 2 2 4 6 5 7 4 3 5 5 5 4 5 6 4 5 4 6 5 6 10 5 5 5 3 2 1 3 3 3 3 2 2 3 2 3 3 4 6 6 6 7 6 6 6 7 6 7 8 7 7 9 10 9 10 11 10 6 5 6 5 5 5 6 7 6 4 3 2 5 8 11 14 14 12 11 11 10 9 8 8 7 7 6
1 2 1 1 4 4 6 6 5 5 4 3 5 6 7 7 8 8 7 5 10 8 10 9 5 10 3 1 1 0 1 1 2 3 2 1 1 1 2 4 4 4 5 5 5 4 4 5 4 5 6 8 8 8 9 9 9 8 8 11 9 6 7 5 7 8 8 11 13 12 13 12 12 11 11 12 12 12 12 11 10 9 8 8 8 7
3 4 4 3 3 5 6 6 2 5 6 7 6 6 6 7 7 6 3 2 4 7 6 5 6 8 6 5 2 1 2 2 2 3 3 3 3 2 3 4 4 5 5 5 6 5 4 3 3 3 4 5 7 7 7 6 8 9 8 7 9 10 9 5 6 8 9 11 10 10 10 11 11 11 11 12 12 11 12 12 11 10 9 9 8 8
2 4 1 2 3 7 4 3 5 3 5 6 7 3 4 5 5 3 4 7 5 6 3 1 2 5 3 3 1 1 3 3 3 4 4 4 3 1 3 4 4 4 4 5 5 5 5 6 5 6 5 6 7 6 5 6 7 8 9 8 9 10 10 7 7 8 10 7 5 5 5 1 1 8 8 11 13 13 12 12 12 11 10 9 8 7
3 1 1 1 5 9 7 4 8 7 8 12 10 8 12 8 6 1 1 3 7 6 4 5 9 5 7 4 5 4 3 3 4 4 4 2 0 0 0 2 3 4 5 5 7 7 7 6 5 5 6 6 7 7 7 5 6 8 10 10 9 10 9 7 8 8 5 5 9 10 10 10 9 7 10 11 11 10 11 11 11 11 10 9 7 7
3 6 5 4 4 9 4 3 0 1 11 11 4 12 12 9 11 7 5 7 6 6 4 6 5 4 3 5 6 6 5 4 4 5 4 4 5 4 3 3 4 4 5 5 6 6 7 7 6 6 5 7 8 8 8 6 7 8 7 9 8 8 10 6 7 7 6 5 7 9 11 12 13 12 11 10 8 8 9 10 10 9 7 7 7 7
3 2 3 3 3 7 2 1 2 8 12 2 0 0 3 7 8 10 5 4 1 1 1 1 4 4 7 6 6 6 7 6 5 7 6 7 6 5 3 4 5 5 6 6 7 7 6 6 7 7 7 7 7 7 8 10 7 8 8 7 9 8 9 7 7 7 6 8 8 5 2 2 6 10 13 11 11 10 9 10 9 9 7 8 9 9
3 6 2 1 2 1 1 3 2 9 4 2 3 3 2 2 3 6 2 2 3 4 5 4 4 4 5 5 4 5 5 6 4 7 8 7 7 6 3 4 5 5 6 6 6 7 7 7 7 8 9 7 6 8 7 10 10 10 11 7 7 8 8 8 7 7 6 6 7 7 8 8 5 1 1 6 7 9 7 7 9 9 7 6 6 5
7 2 2 5 2 5 4 6 10 4 7 4 3 2 2 1 1 2 5 6 2 1 3 2 2 3 3 4 4 4 2 1 2 8 4 7 8 6 6 6 6 7 7 7 6 8 7 8 7 8 7 7 7 8 10 10 9 10 11 10 7 7 8 8 8 8 7 8 8 7 7 7 7 7 8 12 11 9 7 7 6 7 6 8 7 7
3 6 4 4 3 5 6 4 3 3 6 3 2 3 1 3 4 7 3 0 2 3 1 2 2 5 6 5 5 4 1 0 3 4 6 6 7 7 6 6 5 6 6 7 6 6 7 7 7 7 7 9 9 9 9 10 10 10 11 11 8 7 8 8 9 8 8 8 8 10 10 11 13 13 9 7 7 6 6 6 5 6 6 9 8 7
4 0 2 7 3 2 1 4 4 3 4 2 5 6 7 4 6 4 3 1 2 1 3 4 5 6 5 5 4 1 1 5 7 6 7 7 6 6 7 7 6 6 6 6 7 8 8 8 7 8 7 8 10 11 9 10 10 11 12 10 8 7 9 9 9 8 9 9 9 10 10 11 12 13 14 13 11 8 8 7 9 7 6 7 7 7
3 3 2 1 1 1 2 3 5 1 0 1 3 4 5 4 6 3 2 3 2 4 5 4 7 5 5 5 3 1 1 5 8 6 2 5 5 5 4 8 7 7 7 6 6 7 8 7 7 9 9 10 12 9 9 9 10 11 12 11 7 8 10 9 9 9 8 7 8 9 9 9 9 8 12 11 9 7 8 7 7 7 7 5 6 6
3 3 3 1 1 3 3 3 2 3 1 2 2 4 9 3 1 3 5 2 3 4 5 4 5 5 4 4 2 5 5 7 9 8 5 5 7 9 6 5 7 6 7 7 7 6 6 7 8 10 12 12 11 9 9 9 10 12 11 10 9 11 9 8 8 7 5 5 6 8 11 11 12 12 12 14 10 8 8 8 8 7 6 5 3 4
3 0 2 2 1 1 2 2 5 2 2 2 5 2 2 4 1 2 2 3 3 6 5 3 5 5 3 5 5 5 7 8 10 8 7 6 6 9 9 9 9 9 5 6 8 6 7 8 9 10 11 10 11 10 9 9 11 12 10 10 13 12 7 8 8 6 6 7 8 8 11 13 12 12 11 10 10 10 8 7 7 7 6 6 5 5
2 2 3 1 2 1 1 1 2 2 1 2 3 4 3 4 4 3 3 4 1 3 4 4 3 6 3 5 5 7 8 9 10 12 11 8 6 9 10 9 10 10 12 9 8 6 6 10 12 12 11 10 9 9 9 9 12 12 10 12 14 9 7 8 7 7 9 10 9 8 8 8 12 11 8 9 10 10 8 6 6 4 5 6 4 4
1 1 2 2 2 1 0 1 2 3 1 1 3 1 3 5 4 3 1 3 4 2 2 3 4 5 4 4 7 8 9 9 11 12 13 13 10 9 8 9 8 9 10 9 8 10 9 11 11 12 11 9 9 9 9 10 12 11 11 14 10 8 7 7 8 10 10 10 12 12 11 12 12 11 10 10 7 7 7 7 4 4 4 4 5 6
1 2 3 2 3 1 3 4 5 3 3 2 4 3 5 7 4 4 3 3 3 5 4 3 6 7 6 6 7 7 9 10 12 12 12 14 13 11 12 13 11 11 11 12 12 11 10 12 14 13 13 11 10 10 10 9 11 13 14 12 7 7 7 9 10 9 10 9 10 12 12 11 11 12 11 11 9 7 6 4 5 5 3 5 5 5
3 3 1 1 5 3 4 7 5 6 3 4 3 5 7 5 4 3 5 4 5 7 5 5 5 6 7 6 7 8 9 11 12 13 12 12 12 12 10 11 10 9 10 10 10 11 11 11 12 12 14 14 11 11 9 9 9 13 13 10 8 7 10 12 12 12 13 13 12 12 9 12 12 12 10 9 7 7 6 7 6 6 6 5 5 5
3 0 1 2 2 3 4 4 2 4 5 7 8 9 5 3 4 3 4 5 6 6 5 6 7 7 9 8 9 11 12 12 12 12 11 11 12 12 11 11 11 10 10 11 12 11 11 9 11 12 14 14 12 10 9 8 8 9 8 7 8 8 9 10 12 14 15 17 15 11 9 12 9 8 8 6 6 5 5 5 6 6 4 5 5 4
6 1 3 4 5 6 6 5 7 8 5 6 7 6 4 5 6 6 5 5 6 6 5 8 6 8 6 8 11 10 12 12 11 11 11 11 11 11 10 10 11 10 9 10 11 11 11 11 12 13 14 13 10 7 8 9 9 7 7 8 9 11 14 16 15 13 12 14 14 14 12 10 11 10 7 6 6 6 5 3 5 7 6 6 6 4
6 3 6 2 4 5 5 8 10 8 7 8 8 5 5 6 6 6 6 7 7 8 10 10 8 10 8 11 9 8 9 12 11 11 12 12 11 10 10 10 9 10 11 11 11 10 11 11 12 13 13 11 7 6 6 7 6 3 6 10 12 13 11 11 16 16 13 10 9 9 10 9 8 7 7 6 4 3 4 7 6 6 4 4 5 6
1 7 6 4 7 7 6 8 2 6 8 6 5 5 6 7 6 7 7 7 7 9 10 10 11 8 9 9 9 8 10 11 11 9 12 12 11 11 11 11 10 11 11 11 11 11 12 12 12 12 11 7 6 7 4 2 1 3 5 7 10 14 15 14 14 12 11 9 8 7 7 7 7 8 8 7 7 7 3 3 4 6 6 3 7 9
5 5 3 5 4 8 8 9 4 6 9 12 11 7 7 5 5 9 10 10 10 9 9 9 10 10 8 8 7 8 10 10 12 10 11 11 11 10 10 11 11 11 11 12 12 12 11 11 10 8 6 7 7 7 3 1 3 5 5 6 8 12 15 13 11 10 9 10 9 9 8 8 8 8 7 7 7 5 5 2 1 3 4 2 2 4
Wind_Direction
139 184 217 216 218 229 240 200 196 202 157 96 98 104 165 114 286 281 293 270 38 99 6 258 270 344 288 271 271 281 331 20 163 165 177 199 203 203 199 191 192 194 198 188 177 179 188 177 177 167 154 152 150 158 152 149 154 155 155 153 165 175 151 140 133 123 128 117 97 72 85 123 105 101 72 53 21 50 59 76 76 85 87 86 74 55
73 354 268 223 221 207 228 196 129 92 60 129 117 94 354 212 338 262 256 320 343 146 296 320 149 320 254 281 277 314 345 299 238 198 188 195 202 201 199 196 195 195 81 133 167 192 174 161 172 164 162 158 156 183 165 160 164 159 150 163 165 159 160 159 158 150 137 162 168 155 170 148 150 116 108 88 7 51 52 64 81 84 79 71 65 74
11 242 257 236 211 131 121 97 89 128 115 54 193 179 24 298 250 288 285 313 308 89 275 338 22 278 280 273 290 280 251 252 230 186 193 204 236 225 212 207 180 140 177 156 187 187 187 173 179 176 181 186 173 166 168 167 155 156 158 168 162 167 164 172 166 142 162 188 156 128 158 137 137 212 194 141 112 73 77 58 35 28 76 75 58 61
306 282 252 131 139 115 25 87 117 66 65 108 67 54 250 238 44 299 292 346 348 74 273 235 307 294 304 289 261 267 232 267 271 246 209 177 188 216 221 198 181 184 169 182 185 194 181 167 178 186 191 182 162 166 171 171 165 161 164 166 171 173 172 170 180 169 158 127 103 77 101 79 104 145 121 89 67 54 62 54 23 25 80 92 86 85
224 242 187 111 130 161 190 116 127 156 213 303 165 151 210 182 235 165 251 326 318 5 65 92 19 326 326 321 306 331 350 338 298 323 264 197 216 204 210 217 222 192 184 188 187 177 176 178 191 194 184 167 174 181 181 175 172 167 174 174 177 175 176 176 183 154 131 111 88 91 76 74 64 40 36 54 38 22 57 83 64 37 17 76 104 91
286 274 160 229 158 166 168 225 230 139 263 327 243 186 198 192 205 298 337 29 23 336 351 65 353 301 301 295 258 279 342 313 303 325 282 261 187 184 193 208 197 203 213 189 183 184 188 194 192 157 168 188 189 193 193 178 168 168 168 170 177 175 173 172 174 153 149 147 141 132 127 132 103 115 111 178 196 193 146 171 238 318 357 346 79 61
218 292 150 244 220 173 182 208 236 163 200 89 274 191 198 150 125 129 70 85 13 189 289 30 190 267 327 311 292 287 324 301 299 299 283 288 252 180 202 200 195 195 194 208 208 194 192 198 172 181 188 195 195 201 169 172 174 174 170 172 177 177 175 168 164 165 152 150 157 162 165 164 164 162 227 242 230 161 211 96 149 221 355 40 57 56
337 310 1 18 137 156 148 239 234 138 116 241 239 136 130 113 132 186 157 143 205 261 305 35 100 203 308 290 249 289 303 281 302 294 267 261 269 230 215 208 202 196 189 186 192 199 200 190 184 186 196 190 200 168 165 177 182 178 173 171 179 180 173 169 159 169 167 160 167 161 158 161 156 169 188 197 197 168 130 111 108 34 20 6 37 83
132 324 280 291 129 128 199 210 189 147 135 213 196 165 160 188 176 135 132 157 207 136 272 329 337 10 272 266 290 349 311 289 270 261 276 276 264 246 224 209 203 197 189 185 189 196 198 195 198 198 191 198 168 170 177 187 180 176 172 167 169 181 173 167 166 167 181 167 169 166 157 160 177 162 165 162 144 147 137 122 94 82 31 30 29 68
275 203 228 158 124 214 231 226 164 160 164 277 143 89 65 70 76 128 112 126 312 66 271 272 188 208 284 268 323 335 253 274 265 271 271 266 266 260 227 220 197 193 194 194 194 193 198 199 197 195 191 175 193 183 170 154 158 173 170 171 173 184 181 171 171 174 179 176 162 159 168 162 168 148 127 138 148 163 152 158 162 112 88 50 65 49
246 311 169 135 193 212 199 226 176 184 176 127 100 90 18 42 27 22 75 94 67 38 253 231 242 161 292 270 224 146 216 202 257 292 282 285 290 282 263 231 170 179 187 196 199 202 202 199 176 139 173 182 142 146 163 173 173 169 176 179 179 186 181 175 175 177 182 181 173 169 170 164 162 164 149 141 155 156 149 183 194 162 183 149 132 37
335 334 138 246 174 100 165 148 24 30 60 122 84 111 59 316 19 30 340 44 187 275 258 251 190 126 102 293 284 242 283 262 253 277 293 307 306 315 302 268 183 176 182 190 192 198 192 132 150 156 160 163 171 157 179 180 167 175 185 183 183 182 184 182 179 180 186 179 186 175 168 165 167 162 164 170 174 180 180 188 189 199 163 187 89 53
308 234 254 317 229 166 98 112 320 27 11 80 78 51 89 244 42 280 7 279 212 210 249 217 168 28 237 227 266 296 273 279 264 249 291 303 306 314 319 7 15 309 175 176 189 183 177 182 168 175 170 147 170 191 186 183 182 183 186 186 184 190 185 185 181 185 186 185 187 177 172 168 163 168 173 179 176 178 177 181 170 160 196 212 165 217
280 298 337 294 318 199 124 166 269 68 353 120 143 133 93 88 55 245 280 216 309 292 260 224 256 250 249 296 261 248 295 307 322 341 343 8 357 350 354 346 102 103 353 246 181 182 186 188 190 180 174 183 188 185 190 186 185 188 188 189 190 193 185 182 183 186 186 197 191 181 173 169 164 174 177 182 179 182 182 178 175 175 185 187 197 190
39 345 308 175 261 299 94 149 176 179 177 216 69 148 180 145 166 241 198 223 219 221 285 285 99 238 98 211 307 292 296 324 10 338 62 53 46 36 29 30 39 76 119 128 236 214 194 194 190 182 187 189 185 194 188 192 195 184 189 191 195 190 188 185 188 184 189 195 199 190 180 170 172 173 179 186 184 175 177 190 177 183 177 181 197 196
207 203 253 234 269 77 134 183 138 117 65 276 161 76 91 228 142 220 207 156 234 325 356 246 207 197 162 236 319 330 342 28 54 49 50 36 46 49 33 30 34 45 72 92 105 344 320 313 250 200 190 193 197 186 194 196 193 190 195 194 194 192 188 189 187 189 188 194 195 194 180 181 176 176 174 179 182 182 181 179 180 184 186 194 181 187
13 285 286 328 359 79 262 217 232 127 169 254 91 186 223 177 109 91 33 25 114 46 256 160 324 304 298 27 11 340 38 10 23 40 50 37 27 56 41 30 29 42 44 69 129 125 128 130 247 284 256 221 195 189 195 199 193 196 195 191 195 195 190 192 192 190 191 189 186 200 193 177 175 172 178 184 185 182 186 182 186 177 191 176 164 171
149 241 301 103 276 292 56 92 60 1 138 92 91 246 276 100 115 131 202 343 61 155 259 32 213 292 27 263 317 7 34 0 13 21 29 43 29 44 32 22 17 35 47 57 55 68 142 152 181 227 224 266 300 268 220 204 200 202 195 192 190 186 191 197 191 191 190 187 192 193 194 191 184 183 185 179 181 176 172 187 186 166 150 184 179 160
113 284 294 253 255 270 10 37 23 341 23 139 183 199 102 272 303 325 87 235 251 267 268 307 269 257 198 241 32 10 24 15 359 347 24 32 33 21 18 26 8 25 41 36 38 48 36 22 210 190 213 233 229 213 251 297 294 255 210 203 194 195 198 191 189 190 189 187 191 191 192 189 190 190 182 182 174 166 174 179 179 176 182 150 146 142
34 204 293 294 163 306 5 72 225 288 322 18 54 31 353 96 155 94 197 192 128 256 65 292 37 247 218 192 156 165 182 163 24 29 29 10 8 6 359 17 21 23 41 40 38 29 24 35 21 272 233 205 203 223 236 212 205 242 236 220 211 210 195 184 193 188 190 192 189 192 189 192 190 185 180 179 170 175 179 179 172 168 160 173 151 146
294 112 221 280 308 319 142 347 180 154 102 342 38 353 356 28 205 104 47 129 197 183 182 204 309 285 265 216 153 162 175 162 143 90 46 60 25 347 343 349 6 20 25 36 40 36 31 22 23 16 337 276 252 181 169 191 218 231 220 239 234 213 197 193 193 188 199 189 193 185 186 183 179 183 179 174 178 175 178 173 170 172 170 144 153 144
63 47 217 304 354 343 284 236 180 169 167 156 170 157 158 129 92 353 270 20 77 131 234 127 240 272 275 261 178 158 191 183 213 109 59 27 44 48 4 352 356 18 17 29 37 34 32 26 26 32 22 2 352 277 197 187 185 221 223 227 222 222 217 204 196 198 200 194 193 191 187 180 176 170 166 169 175 175 171 167 169 163 147 157 160 150
150 151 95 252 215 218 222 275 271 279 105 142 122 171 139 124 98 109 170 265 3 245 125 157 122 276 263 273 267 206 202 198 195 151 52 27 21 32 49 36 16 27 31 25 31 33 34 29 24 25 35 39 17 325 287 212 193 202 210 216 223 219 224 211 206 198 342 282 235 205 187 173 170 165 167 164 170 170 168 164 156 155 152 151 149 146
103 45 35 303 308 294 309 268 320 42 104 70 21 37 64 104 167 168 171 182 158 300 354 359 208 237 284 291 284 294 285 323 351 29 32 35 17 20 41 63 56 43 27 29 34 37 36 36 27 23 20 18 14 18 8 327 304 254 212 200 198 212 218 196 173 176 177 169 198 285 233 183 168 164 164 164 163 161 161 153 148 147 142 141 137 138
35 299 124 22 4 343 341 349 5 333 51 87 119 327 98 86 69 129 98 29 114 231 180 142 235 244 209 291 347 2 353 0 356 354 25 25 13 12 18 23 38 47 46 32 27 21 24 25 21 18 13 9 9 10 9 360 324 279 271 236 209 211 198 197 190 191 186 184 171 158 174 233 186 167 162 153 148 149 146 143 136 138 136 128 127 127
225 203 126 192 204 240 268 274 259 278 267 199 132 93 314 108 137 46 179 64 138 278 135 180 246 260 268 342 358 309 6 353 348 353 355 26 350 3 8 14 24 33 33 36 30 27 26 13 17 17 9 2 1 3 4 356 353 332 282 254 231 213 204 196 182 194 189 180 169 162 153 146 154 180 162 151 149 148 147 143 143 138 137 136 127 112
183 117 145 159 163 204 211 217 245 123 64 263 212 135 213 50 59 115 96 98 198 220 217 231 186 282 286 122 312 348 35 354 351 351 355 347 348 353 35 26 33 34 35 31 38 26 18 18 15 12 6 359 355 351 349 355 353 347 333 298 278 266 236 206 187 186 181 184 182 171 173 170 166 163 168 164 156 148 145 146 148 143 140 135 131 129
57 358 274 170 221 220 210 210 219 177 218 231 254 233 174 173 167 136 156 222 185 152 266 245 212 202 242 243 277 307 1 251 292 305 315 324 334 344 346 356 1 21 19 24 26 22 20 5 356 359 360 4 357 344 347 343 342 348 338 324 303 263 271 283 216 198 196 190 194 188 178 171 166 160 163 161 155 153 150 146 145 140 136 134 133 137
98 278 268 144 265 246 232 241 232 206 200 211 203 189 172 208 170 187 222 215 147 183 239 242 190 215 233 188 226 235 212 188 197 226 240 267 313 331 340 4 17 11 1 13 6 3 0 4 351 349 350 347 351 350 344 343 340 340 341 337 321 286 245 212 205 204 190 177 174 201 205 188 188 172 158 154 153 151 149 146 142 139 139 139 139 143
64 258 261 246 281 312 279 243 261 230 259 224 220 213 208 171 207 203 224 200 184 223 225 240 189 234 204 206 219 250 264 238 245 253 278 302 269 309 22 25 15 359 2 356 345 340 337 333 336 333 339 340 343 341 338 337 335 333 331 327 330 318 274 221 209 205 196 193 195 189 179 177 176 171 159 152 155 155 148 143 143 142 142 143 145 145
90 274 25 13 359 291 295 316 298 237 227 244 239 232 205 197 210 217 215 231 208 262 276 273 237 260 263 209 200 292 314 295 319 343 337 310 355 21 45 19 358 345 334 335 329 328 309 292 299 307 320 320 322 326 322 317 319 321 320 319 323 320 304 251 227 209 208 210 207 193 180 175 177 162 160 158 155 153 151 148 145 144 142 144 148 147
63 267 33 33 336 285 289 295 279 287 255 243 251 206 193 177 202 224 201 210 163 217 226 190 284 261 249 262 263 324 347 346 320 299 306 322 336 30 41 359 341 315 311 308 304 306 314 324 329 330 320 312 305 301 304 307 313 316 314 317 317 314 303 263 234 225 219 211 154 148 160 138 224 155 170 165 163 160 156 148 144 144 147 148 148 142
184 161 217 165 273 256 247 263 282 296 312 283 249 186 198 207 206 161 271 206 201 157 139 192 231 219 177 170 149 230 262 272 279 262 268 285 291 225 280 298 281 284 290 298 310 313 311 310 308 304 306 303 300 300 293 289 302 305 308 312 311 311 299 256 232 229 213 168 169 169 170 157 175 192 184 183 171 157 147 145 144 142 142 154 148 132
163 180 221 150 206 267 254 222 298 130 237 243 230 185 174 208 210 197 208 206 220 150 199 188 199 180 146 141 163 197 206 228 213 246 206 209 207 227 243 241 260 267 279 282 282 286 291 299 297 288 282 282 285 285 286 291 290 288 293 299 303 309 297 249 233 219 200 182 180 181 178 175 177 181 185 168 156 146 146 140 140 143 139 124 125 132
215 160 221 166 209 259 282 80 276 248 246 239 262 124 232 191 161 177 213 207 200 247 128 124 133 160 189 185 185 194 208 241 240 252 256 229 203 196 217 245 264 270 277 282 288 287 283 279 285 290 294 291 287 294 307 305 302 299 299 300 302 302 293 260 226 218 193 187 192 189 187 228 213 197 179 160 154 150 148 142 128 127 133 140 146 146
221 205 201 258 162 26 49 156 198 243 279 339 304 349 326 75 62 80 0 298 266 216 197 179 193 203 192 210 226 217 212 244 288 266 243 236 208 197 198 239 254 251 262 262 265 274 280 282 279 282 285 289 295 295 296 295 303 306 300 297 288 291 283 260 231 218 194 182 169 166 158 147 130 23 328 108 123 127 133 131 134 135 133 128 132 134
219 126 155 258 162 211 187 181 232 344 315 294 306 42 18 341 276 188 234 270 268 252 150 168 245 278 295 265 247 255 258 8 306 287 262 217 223 221 208 232 230 244 248 259 250 262 264 270 274 272 274 278 282 288 291 293 295 295 296 294 282 279 275 258 233 213 194 180 173 165 148 136 124 131 169 149 136 131 127 117 117 122 130 131 145 152
163 166 233 159 261 167 220 277 318 297 260 289 240 280 241 210 227 246 165 306 326 291 192 146 201 244 242 266 271 261 326 11 306 272 268 250 230 242 252 247 250 252 254 258 270 267 267 267 271 271 266 275 277 274 279 283 288 290 289 287 281 270 268 249 238 215 195 185 174 162 154 147 144 141 132 94 87 98 102 101 107 134 146 145 159 172
2 156 172 163 240 59 206 213 230 208 247 214 278 297 296 309 293 217 108 173 260 274 267 216 255 250 223 225 247 209 37 333 283 265 263 249 248 236 254 263 261 255 248 249 254 267 270 268 259 266 270 268 271 275 272 273 281 285 283 280 276 262 259 248 232 215 197 189 175 164 156 156 155 153 142 134 138 133 123 144 152 167 159 164 168 175
14 347 43 143 266 242 156 227 247 197 206 4 287 301 298 332 329 52 190 265 268 262 243 193 234 247 254 244 212 271 288 286 290 275 215 225 248 259 253 274 270 266 267 255 249 243 255 265 279 276 268 266 268 270 269 273 274 273 275 277 268 259 253 245 227 216 206 181 169 162 147 137 130 126 118 110 109 139 158 160 140 159 170 174 169 160
4 336 48 252 201 255 218 264 331 308 306 280 270 300 313 301 48 110 208 235 266 276 272 204 238 239 228 255 188 283 230 230 259 280 293 296 304 294 278 265 262 249 261 267 262 253 257 258 253 266 274 276 273 270 267 265 268 268 268 270 269 258 249 243 225 212 192 164 159 156 148 149 149 143 130 131 149 148 144 150 156 161 159 164 160 138
336 52 306 50 45 259 230 185 234 246 239 268 268 216 271 36 21 222 234 213 252 295 295 231 259 283 264 274 261 239 263 280 287 290 288 280 268 275 283 287 293 291 251 231 251 261 266 268 271 272 275 273 274 270 263 261 260 262 265 266 260 258 248 236 218 183 162 158 156 156 156 152 141 128 121 125 133 140 153 169 154 163 171 153 160 161
249 17 255 242 254 34 53 282 347 284 259 197 292 358 26 43 233 249 301 293 221 271 283 292 231 266 221 272 261 261 277 287 287 290 292 283 265 273 283 290 291 291 296 294 283 258 258 286 290 286 277 277 273 271 265 257 259 261 261 259 259 257 240 224 194 162 159 157 146 136 133 125 118 113 116 136 142 148 157 156 161 160 146 152 149 150
206 314 286 285 183 223 266 219 218 191 214 198 74 309 277 264 262 266 148 279 307 238 248 265 272 250 246 244 277 290 285 287 292 292 293 293 289 283 280 277 274 279 282 275 268 286 292 283 279 280 281 276 274 270 266 257 260 260 258 257 257 251 229 198 175 165 160 156 149 145 144 130 119 123 135 137 151 148 156 166 151 129 139 137 146 154
182 152 169 238 251 169 211 223 256 232 209 222 169 218 250 261 220 204 179 212 253 276 203 207 254 266 255 256 269 269 283 278 275 277 279 280 286 286 285 283 283 282 281 284 289 289 284 279 281 280 281 282 278 273 266 257 256 258 255 254 239 227 195 175 167 151 143 144 142 133 129 128 137 147 148 157 161 155 157 132 136 124 127 130 141 161
271 262 173 119 262 288 261 231 262 305 337 324 263 260 266 249 237 202 216 241 234 231 218 222 244 251 266 260 262 274 260 266 273 278 275 274 275 276 274 276 276 267 267 273 279 278 275 276 274 278 282 284 278 273 263 256 251 253 250 241 221 200 180 171 159 148 147 139 127 132 151 145 151 155 149 148 153 154 155 154 155 138 145 147 160 169
274 314 63 220 273 10 285 331 310 274 296 310 308 298 278 227 247 225 250 243 255 258 256 248 245 252 252 259 248 254 263 265 266 268 272 277 277 274 272 272 270 265 269 274 271 275 278 275 278 280 282 284 282 271 260 256 253 248 245 225 198 180 166 156 149 153 151 141 142 150 149 155 154 137 127 110 86 90 119 128 127 125 138 153 156 167
304 163 345 237 238 222 241 257 284 289 277 262 260 263 259 263 262 261 246 259 271 276 268 265 262 264 259 260 252 252 260 268 271 274 276 272 270 273 274 272 272 276 267 261 269 269 269 270 273 279 281 281 275 267 277 274 264 257 220 190 171 160 160 156 152 146 137 138 144 149 159 149 138 134 118 116 121 118 101 88 127 137 152 163 170 163
243 349 271 195 266 272 282 281 270 290 287 270 262 239 230 247 255 264 255 258 260 264 267 266 247 249 253 254 262 260 267 269 265 265 269 273 273 272 270 270 272 273 277 277 271 264 265 272 277 277 280 276 274 279 281 272 282 266 192 169 150 138 132 132 129 126 130 129 129 141 135 134 132 124 118 110 102 86 138 151 163 168 196 223 168 164
153 240 251 295 288 277 248 266 263 306 291 295 253 242 256 252 238 251 263 262 258 260 261 264 270 254 247 255 258 257 256 265 269 265 268 268 268 270 275 280 281 279 275 269 267 267 270 272 272 275 272 275 283 290 258 276 5 51 97 110 119 119 119 121 121 123 126 129 137 131 122 109 107 115 122 130 125 113 59 2 180 177 156 203 218 213
207 236 213 228 222 265 260 263 240 234 268 266 271 263 250 259 259 268 270 270 274 267 267 272 279 287 273 261 247 246 255 260 270 270 270 271 270 272 277 277 280 279 277 277 279 279 275 274 272 262 275 282 287 272 198 102 83 78 87 85 94 108 115 124 127 135 144 148 151 144 125 116 117 121 121 120 120 119 136 109 24 238 237 219 178 199